RH
6 7 7 7 7 7 8 9 10 10 10 10 10 10 9 8 9 10 10 11 10 11 11 12 12 12 12 12 12 13 14 15 16 17 17 18 19 20 21 22 23 24 25 26 27 28 28 29 29 28 28 28 27 27 26 26 25 24 24 23 23 22 22 22 21 21 20 19 19 18 17 16 16 15
6 6 7 7 7 7 8 8 8 9 10 10 9 9 9 8 8 8 9 11 11 11 11 12 13 13 12 12 11 11 11 11 12 13 13 14 14 15 16 17 17 18 19 20 20 21 21 22 23 24 24 24 25 25 24 24 24 23 22 22 21 21 20 20 19 19 19 18 18 17 16 15 15 14
6 6 6 7 7 7 7 7 7 8 9 9 9 9 8 8 8 7 8 9 11 12 12 12 12 13 13 12 12 11 10 10 10 10 10 11 11 12 12 13 13 14 14 15 15 16 16 16 17 18 18 19 19 20 20 21 20 21 20 20 20 19 19 18 18 18 17 17 16 15 15 14 13 13
6 6 7 7 7 7 7 7 7 7 8 8 9 9 8 8 7 7 7 7 9 11 12 12 12 12 13 13 12 12 11 10 10 9 9 10 10 10 9 10 10 10 11 11 12 12 12 13 13 14 14 14 15 15 15 15 15 16 16 17 17 17 17 17 16 16 16 15 15 14 14 13 12 12
5 6 6 7 7 7 7 8 7 7 7 7 8 8 8 8 7 6 6 6 7 9 11 12 12 12 12 12 12 12 12 11 10 10 10 9 10 10 9 9 9 9 9 8 9 9 9 10 10 10 11 11 12 12 12 12 12 12 12 12 13 13 13 14 14 14 14 14 13 13 13 12 12 11
5 5 5 6 7 7 7 8 7 7 7 7 7 7 7 8 7 7 6 6 6 8 9 11 12 12 12 11 12 12 12 12 11 10 10 9 10 10 10 9 9 9 9 8 8 8 8 8 8 8 8 8 9 9 9 10 10 10 10 10 10 10 10 11 11 11 11 11 11 11 11 11 10 10
4 4 5 5 5 6 6 7 7 7 7 7 7 7 7 8 8 7 7 6 6 7 7 9 10 11 11 11 11 11 11 11 10 10 9 9 9 9 10 10 10 10 9 9 9 8 8 8 7 7 7 7 7 7 7 7 7 8 8 8 8 8 8 9 8 9 9 9 9 9 10 9 9 9
3 3 4 4 4 5 5 6 6 6 7 7 7 7 7 7 8 8 8 7 7 7 7 7 8 9 10 10 10 10 10 9 9 9 9 9 9 9 9 10 10 10 10 9 9 9 9 8 8 8 7 7 7 6 6 6 5 6 6 6 6 6 6 7 7 7 7 7 8 7 8 8 8 8
3 2 3 3 3 4 4 4 5 5 6 6 6 6 6 6 7 7 7 7 7 8 7 7 7 8 8 9 9 9 9 9 9 9 9 9 9 9 9 9 9 10 10 10 10 9 9 9 8 8 8 7 7 7 6 6 6 6 5 5 5 5 5 5 5 5 5 5 6 6 6 6 6 6
2 2 3 2 2 3 3 3 3 3 4 4 4 5 5 5 5 6 6 6 7 7 7 7 7 7 7 8 8 9 9 9 9 9 9 8 8 8 8 8 8 9 9 9 10 9 9 9 8 8 8 8 8 7 7 7 6 6 6 5 5 5 5 5 4 4 4 4 4 5 5 5 5 5
2 2 2 2 2 2 2 3 3 3 3 3 3 3 3 4 4 4 5 5 5 6 6 6 6 6 7 6 7 7 7 8 8 8 8 8 9 8 8 8 8 8 9 9 9 9 9 9 9 8 8 8 8 8 7 7 7 6 6 6 6 5 5 5 5 4 4 4 4 4 4 4 4 4
2 2 2 2 2 2 2 2 2 2 2 2 2 2 2 3 3 3 3 3 4 4 4 5 5 6 6 6 6 5 5 6 6 7 8 8 8 8 8 8 7 7 8 8 8 9 8 9 8 8 8 8 8 8 7 7 7 7 6 6 6 6 5 5 5 5 5 4 4 4 4 3 3 3
2 2 2 2 2 2 2 2 2 2 2 2 2 2 2 2 2 2 2 2 3 3 3 4 4 4 5 5 5 5 5 5 5 6 6 6 7 7 7 7 7 7 7 7 8 8 8 8 8 8 8 7 7 7 7 7 7 6 6 6 6 6 5 5 5 5 5 5 4 5 4 4 4 3
2 2 2 2 2 2 2 2 2 2 2 2 2 2 2 2 2 2 2 2 2 2 2 3 3 3 4 4 4 5 4 5 4 4 5 5 6 6 6 6 7 7 7 6 7 7 7 8 8 7 7 7 7 7 6 7 7 6 6 6 6 6 5 5 5 5 5 5 5 5 4 4 4 4
2 2 2 2 2 2 2 2 2 2 2 2 2 2 2 2 2 2 2 2 2 2 2 2 2 2 3 3 3 4 4 4 4 4 4 4 5 5 5 6 6 6 6 6 6 6 6 7 7 7 7 7 7 6 6 6 6 6 6 6 6 6 5 5 5 5 5 5 5 5 4 4 4 4
3 3 3 3 3 2 2 2 2 2 2 2 2 2 2 2 2 2 2 2 2 2 2 2 2 2 2 3 3 3 3 4 4 4 4 4 4 4 5 5 6 6 5 5 5 6 5 6 6 6 6 6 6 6 5 5 5 5 5 5 5 5 5 5 5 5 5 4 4 4 4 4 4 4
3 3 3 3 3 3 3 3 3 3 2 2 2 2 2 2 2 2 2 2 2 2 2 2 2 2 2 2 3 3 3 3 3 3 3 3 3 3 4 4 5 5 4 4 4 5 5 5 5 5 5 5 5 5 5 5 4 4 4 4 4 4 4 4 4 4 4 4 4 4 4 4 4 4
4 3 4 3 3 3 3 3 3 3 3 3 3 3 2 2 3 3 2 2 2 3 2 2 2 2 2 2 2 2 2 2 3 3 3 3 3 3 3 3 4 4 4 4 4 4 4 4 4 4 4 4 4 4 4 4 4 4 4 4 4 4 4 4 4 4 4 4 4 4 4 4 4 4
3 3 3 3 4 4 3 3 3 3 3 3 3 3 3 3 3 3 3 3 3 3 3 3 3 2 2 2 2 2 2 2 3 3 3 3 3 3 3 3 3 3 3 4 4 4 4 4 4 4 4 4 4 4 4 4 4 4 4 3 3 3 3 3 3 3 3 3 4 3 3 4 3 3
3 3 3 3 4 4 4 4 3 3 3 3 3 3 3 3 3 3 3 3 3 3 3 3 3 2 2 2 2 2 2 2 3 3 3 3 3 3 3 3 3 3 3 3 3 3 3 4 4 4 4 4 4 4 4 4 3 4 4 3 3 3 3 3 3 3 3 3 3 3 3 3 3 3
3 3 3 3 3 3 3 3 3 4 3 3 4 4 3 3 3 3 3 3 3 3 3 3 3 3 3 3 3 2 3 3 2 3 3 3 3 3 3 3 3 3 3 3 3 3 3 3 3 4 4 4 4 4 4 3 3 3 3 3 3 3 3 3 3 3 3 3 3 3 3 3 3 3
3 3 3 3 3 3 3 3 3 4 4 4 4 4 3 3 3 3 3 3 3 3 3 3 3 3 3 3 3 3 3 3 3 3 3 2 3 3 3 3 3 3 3 3 3 3 3 4 3 3 4 4 4 4 4 3 3 3 3 3 3 3 3 3 3 3 3 3 2 3 3 3 3 3
3 3 3 3 3 3 3 3 3 3 3 4 3 3 3 3 3 3 3 3 3 3 3 3 3 4 4 4 4 4 3 3 3 3 3 2 3 2 2 3 2 3 3 3 3 3 3 3 3 3 3 3 3 4 3 4 3 3 3 3 2 3 3 3 3 3 3 3 2 2 3 2 3 3
3 2 3 2 2 3 2 2 3 2 3 3 2 3 3 2 3 3 2 3 3 3 3 3 3 4 4 3 4 3 4 4 3 3 3 3 3 2 2 3 3 3 3 3 3 3 3 3 3 3 3 3 3 3 3 3 3 3 3 3 2 3 3 2 3 3 2 3 2 2 3 2 2 3
3 3 3 3 2 3 2 2 2 2 2 2 2 3 3 2 3 2 2 3 2 2 3 3 3 3 3 3 3 3 3 4 3 3 3 3 3 3 3 3 3 3 3 3 3 3 3 3 3 3 3 3 3 3 3 3 3 2 2 3 2 2 3 2 3 2 2 2 2 2 2 2 2 2
3 3 3 3 2 3 2 2 3 2 2 2 2 3 2 2 3 2 2 3 2 2 3 2 3 3 3 3 3 3 3 3 3 3 4 3 4 4 4 4 4 4 4 3 4 4 3 3 3 2 3 3 3 3 3 3 3 2 2 3 2 2 3 2 2 2 2 2 2 2 2 2 2 2
3 3 3 3 3 3 3 3 3 2 3 3 2 2 3 2 3 3 3 3 3 3 3 3 3 3 3 3 4 3 3 3 3 3 3 3 4 4 4 4 4 4 4 4 4 4 3 3 3 3 3 3 3 3 3 3 3 3 3 3 2 2 3 2 2 2 2 2 2 2 2 2 2 2
3 3 3 3 3 3 3 3 3 3 3 3 2 3 3 3 3 3 3 3 3 3 3 3 3 3 3 3 3 3 4 3 3 4 3 3 4 3 4 4 4 4 4 4 4 4 4 4 4 4 4 4 4 4 3 3 3 3 3 3 3 3 3 2 3 2 2 2 2 2 2 2 2 2
3 3 3 3 3 3 3 3 3 3 3 3 3 3 3 3 3 3 3 3 3 3 3 4 4 4 4 4 4 4 4 3 3 3 3 3 3 3 3 4 4 4 4 4 4 4 4 4 4 4 4 4 4 4 3 3 3 3 3 3 3 3 3 2 3 2 2 2 2 2 2 2 2 2
3 3 3 3 3 3 3 3 3 3 3 3 3 3 3 3 3 3 3 3 3 3 4 3 4 4 4 4 4 4 3 4 3 3 3 3 3 4 4 4 4 4 4 4 4 4 4 4 4 4 4 4 4 4 3 3 3 3 3 3 2 3 3 2 3 3 2 2 2 2 2 2 2 2
3 3 3 3 3 3 3 3 3 3 3 3 3 3 3 3 3 3 3 3 3 3 4 3 4 4 4 4 4 4 4 4 4 4 4 4 4 4 4 4 4 4 4 4 4 4 4 4 4 4 4 4 4 4 3 3 4 3 2 3 3 3 3 2 2 2 2 2 2 2 2 2 2 2
4 3 3 3 3 3 3 3 3 3 3 3 3 3 3 3 3 3 3 3 3 4 4 4 4 4 4 4 4 4 4 4 4 4 4 4 4 4 4 4 4 4 4 4 4 4 4 5 5 5 5 5 4 4 4 4 4 3 3 3 3 3 3 2 2 2 2 2 2 2 2 2 2 2
4 4 3 3 3 3 3 3 3 3 3 3 3 3 3 3 3 3 4 4 4 4 4 4 4 4 4 4 4 4 4 4 4 5 4 4 5 4 4 5 4 5 5 4 5 5 5 5 5 5 5 5 4 4 4 4 4 3 3 3 3 3 3 2 2 2 2 2 3 2 2 2 2 2
4 4 4 4 4 4 3 3 3 3 3 3 4 3 3 4 3 3 4 4 4 4 4 4 4 4 4 4 4 4 4 4 4 5 4 5 5 4 5 5 4 5 5 4 5 5 5 5 5 5 5 5 4 4 4 4 4 4 3 3 3 3 3 2 2 2 2 2 2 3 3 2 2 2
4 4 4 4 4 4 4 4 4 4 4 4 4 4 4 4 4 4 4 4 4 4 4 4 4 4 4 4 4 4 4 4 4 4 4 5 4 4 5 5 4 5 5 4 5 5 4 5 5 4 4 4 4 4 4 4 4 3 3 3 3 2 3 3 2 2 2 2 2 2 2 3 2 2
5 5 4 4 4 4 4 4 4 4 4 4 4 4 4 4 4 4 4 4 4 4 4 4 4 4 4 4 4 4 4 4 4 4 4 4 4 5 4 4 5 5 4 4 5 4 4 5 4 4 4 4 4 4 4 3 4 3 3 3 3 3 3 3 2 3 2 2 2 3 2 3 3 2
6 6 5 5 5 5 5 5 4 4 4 4 4 4 4 4 4 4 4 4 4 4 4 4 4 4 4 4 4 4 4 4 4 4 4 4 4 4 4 4 4 4 4 4 4 4 4 4 4 4 4 4 3 3 3 3 3 3 3 3 3 3 3 3 2 3 3 2 3 3 3 3 3 3
7 7 7 7 7 6 6 6 5 5 5 5 5 5 5 5 5 4 5 5 4 4 5 4 4 4 4 4 4 4 4 4 4 4 4 4 4 4 4 4 4 4 4 4 4 4 4 4 4 4 4 4 4 4 4 4 4 4 4 4 3 3 3 3 3 3 3 3 3 3 3 3 4 3
9 9 9 9 8 8 8 8 8 7 7 7 7 6 6 6 6 6 6 6 5 5 5 5 5 5 5 5 5 5 5 5 5 5 5 5 5 5 5 5 4 5 5 5 5 5 5 5 5 5 4 5 5 4 4 4 4 4 4 4 4 4 3 3 3 4 3 3 3 3 3 3 3 3
10 10 10 9 9 9 9 9 9 9 9 9 8 8 8 8 8 8 8 7 8 8 7 7 7 7 7 7 6 6 6 6 6 6 6 6 6 6 5 6 6 6 6 6 6 6 6 5 5 5 5 5 5 5 5 5 4 4 4 4 5 5 4 4 3 3 3 3 3 3 3 3 3 3
9 8 8 8 8 8 8 8 9 9 9 9 9 9 9 9 8 8 8 8 8 8 8 8 8 8 8 8 8 7 8 7 7 7 7 7 7 6 6 6 6 6 6 6 6 6 6 6 6 5 6 6 5 5 5 5 4 4 3 3 4 5 5 5 5 4 3 3 3 3 3 3 3 3
8 8 8 8 8 8 8 8 8 8 8 8 8 8 8 8 8 8 8 8 8 8 8 8 8 8 7 7 7 7 7 7 7 7 6 6 6 6 6 6 5 5 5 5 5 5 6 5 6 6 5 5 5 5 5 5 5 5 4 3 3 3 4 4 5 5 5 4 3 3 3 3 3 3
8 8 8 9 9 9 10 10 10 11 10 11 11 11 11 11 11 11 11 10 10 10 10 9 9 9 8 8 8 8 7 7 7 7 6 6 6 6 6 6 6 5 6 5 5 6 6 6 6 6 6 6 6 6 6 6 5 5 5 4 3 3 3 3 4 5 5 5 4 4 4 4 4 4
10 10 11 12 13 14 14 14 14 15 14 14 14 14 14 14 14 14 14 13 13 12 12 11 11 10 10 10 9 9 8 8 8 8 8 7 7 7 7 7 7 6 6 6 6 6 6 6 6 6 6 6 6 6 6 6 5 5 5 4 3 3 3 3 3 3 3 4 4 4 4 5 4 4
15 16 17 17 17 17 17 17 17 16 16 16 16 16 15 15 15 14 14 14 13 12 12 11 11 10 10 9 9 9 8 8 8 8 8 8 7 8 7 7 7 7 6 6 6 6 5 5 5 5 6 5 5 5 6 6 5 5 4 4 4 3 3 3 3 3 3 3 3 3 3 4 5 5
Wind_Speed
126 128 130 130 130 130 129 129 130 131 132 132 133 134 134 134 135 135 136 135 134 134 135 135 136 137 138 140 142 143 144 145 146 147 148 148 148 148 147 147 146 145 144 143 142 141 140 140 139 138 137 136 135 135 134 133 133 132 131 130 129 128 128 127 127 126 126 125 124 124 123 123 122 122
123 125 128 129 130 130 130 129 130 131 132 132 132 132 132 132 132 132 132 133 134 134 134 134 135 136 137 139 140 141 141 142 143 144 145 146 147 148 147 147 147 146 146 145 145 144 143 142 141 140 139 138 137 136 135 134 134 133 131 130 129 128 128 127 127 126 126 125 125 125 124 124 123 123
118 121 124 126 128 129 129 130 130 131 132 133 133 133 132 131 130 128 128 128 130 132 133 134 135 136 138 139 139 139 140 140 140 141 142 143 144 145 146 145 146 146 146 146 146 146 145 143 142 142 141 140 139 138 137 136 135 134 133 132 130 129 128 127 127 126 126 125 125 125 125 124 124 123
113 116 118 121 124 126 128 129 129 130 131 132 133 133 132 131 129 127 125 124 125 129 131 133 134 136 137 138 139 139 139 139 139 139 139 140 141 142 143 143 143 143 144 144 144 145 145 144 143 143 142 142 141 140 139 138 137 136 134 133 132 131 130 129 128 127 127 126 126 125 125 125 124 124
109 111 113 116 119 121 124 126 128 129 129 130 131 132 132 131 129 127 125 123 122 125 128 131 132 134 135 137 138 138 138 139 138 138 138 138 138 139 140 140 140 140 140 140 141 141 142 142 142 142 142 142 142 141 141 140 139 138 136 135 134 133 132 131 130 129 128 127 127 126 125 125 125 125
106 107 109 111 114 117 120 122 124 126 127 128 129 130 131 130 129 128 126 123 122 123 126 128 130 133 134 135 135 136 137 138 138 138 137 136 136 137 138 138 137 137 137 137 137 137 138 139 140 140 140 140 140 141 140 140 140 139 138 137 136 135 134 133 132 131 130 129 128 128 127 126 126 126
100 103 104 106 109 112 115 117 120 122 124 125 126 127 128 129 129 129 128 125 123 122 124 126 128 131 132 133 134 134 136 137 137 136 135 135 135 135 136 136 135 135 135 135 135 135 135 136 136 137 138 138 138 138 138 139 139 138 138 138 137 136 136 135 134 133 132 131 130 130 129 128 128 128
94 96 98 101 104 108 110 112 115 117 119 121 122 123 125 126 127 128 128 127 125 124 124 124 126 128 130 132 133 134 134 134 135 134 133 133 133 133 134 134 134 134 134 134 134 133 133 134 134 135 135 136 136 136 136 136 136 136 136 136 136 136 136 135 135 134 133 133 132 131 131 131 130 130
89 90 92 95 98 101 104 106 108 111 114 116 118 119 120 122 124 125 126 126 126 125 125 124 124 126 128 130 131 132 133 133 133 132 132 132 132 132 132 132 133 134 134 133 133 133 133 133 133 133 134 134 134 134 134 134 134 134 134 135 135 135 135 135 134 134 134 133 133 133 133 132 132 132
85 86 88 90 93 95 97 99 102 105 107 110 112 113 115 117 119 121 123 123 123 124 124 124 124 126 127 128 129 131 132 132 132 132 131 131 130 130 130 130 131 131 132 132 132 133 133 133 133 132 132 132 132 132 133 133 133 133 133 133 133 133 133 133 133 133 133 133 133 133 133 133 133 133
79 81 83 85 87 90 91 94 96 99 101 103 105 107 109 111 113 115 117 118 119 121 122 123 124 125 126 127 127 128 129 130 130 130 130 129 129 130 129 129 129 130 131 131 132 132 132 132 132 132 131 131 131 131 132 132 132 132 132 132 132 132 132 132 132 132 132 132 132 133 133 133 133 133
75 77 78 80 82 84 86 88 91 93 94 96 98 100 102 104 106 108 110 112 114 116 118 119 120 122 124 125 126 126 126 126 126 127 128 128 129 130 130 129 129 129 130 130 131 131 132 132 132 132 131 131 131 131 131 131 131 131 131 131 131 131 131 130 130 130 130 130 131 131 132 132 132 133
73 74 75 77 78 80 81 83 85 86 88 90 91 93 95 98 100 101 103 105 108 110 112 114 115 117 119 121 123 124 124 124 124 125 126 127 127 128 129 128 127 127 128 129 129 130 130 131 131 131 131 131 131 131 130 130 131 131 131 131 130 130 129 129 129 128 128 128 129 129 130 130 131 131
70 72 73 74 75 76 77 78 80 81 82 84 86 87 89 91 93 95 96 98 101 103 106 108 110 111 113 116 119 121 122 123 123 123 123 123 124 124 125 125 125 126 127 128 128 128 129 130 131 131 131 131 131 131 131 130 130 130 130 129 129 129 128 128 127 127 127 127 127 128 128 128 129 129
68 69 70 71 73 74 75 76 77 78 79 79 81 83 85 86 87 89 90 92 94 96 98 101 104 105 106 108 112 115 118 120 120 120 120 120 121 121 122 122 123 125 126 127 127 127 128 129 130 131 131 131 131 131 131 130 130 129 129 128 128 128 127 127 126 126 125 125 126 126 126 126 127 126
63 65 66 68 70 71 73 74 75 76 76 77 78 80 82 83 84 85 86 87 88 90 92 94 96 96 98 100 104 108 111 114 116 117 117 117 118 118 119 120 122 124 125 125 125 125 126 127 129 129 129 130 130 131 131 130 129 128 127 127 127 127 126 126 125 125 125 124 124 124 125 125 125 125
59 60 62 64 66 68 70 71 72 73 74 75 76 77 78 79 80 82 83 84 85 86 88 89 89 90 92 94 97 101 104 107 110 111 112 113 114 115 116 118 120 122 123 123 122 122 124 125 126 126 126 127 128 129 129 128 127 126 126 126 126 125 125 125 125 124 124 124 124 123 124 124 124 124
57 58 59 61 63 65 66 68 69 70 71 72 73 74 75 76 77 79 80 81 82 83 84 85 85 87 89 90 92 95 98 99 101 103 106 108 110 112 113 114 116 118 120 120 119 120 121 123 123 123 123 125 125 126 126 125 125 125 125 124 124 123 123 123 123 123 123 123 123 123 123 123 123 123
54 55 55 57 59 61 63 64 65 66 67 68 69 70 72 73 75 76 77 78 79 80 81 82 83 85 86 87 88 90 91 92 94 96 99 102 105 107 109 111 112 114 116 117 117 118 119 119 120 120 121 122 122 122 122 122 123 123 123 122 121 121 121 121 121 121 121 121 122 122 123 123 123 123
50 51 51 53 55 57 59 60 62 63 63 64 65 66 68 70 72 73 74 75 75 76 77 79 81 82 83 84 84 85 86 87 89 92 94 96 99 102 105 107 109 111 112 113 114 114 115 115 116 117 118 119 119 119 119 120 120 120 120 119 119 119 118 118 118 117 117 118 119 120 121 121 121 121
46 46 47 49 50 52 54 55 57 58 59 60 61 63 65 66 67 69 71 72 72 72 73 74 76 78 79 80 81 82 83 84 86 88 90 92 95 98 101 103 105 107 108 109 109 109 109 110 112 113 115 116 116 116 117 118 117 117 116 116 116 116 116 115 115 114 114 114 115 116 117 117 118 118
43 43 44 45 46 49 50 51 52 53 55 57 59 60 61 63 65 67 69 69 69 69 69 70 71 73 74 76 77 78 80 81 83 85 87 89 92 94 96 98 100 102 103 104 104 103 103 106 108 110 111 112 113 114 115 116 115 114 114 113 113 112 112 112 111 110 110 110 111 111 112 113 114 114
40 41 42 42 43 45 47 47 48 51 54 56 58 59 60 61 63 64 65 65 65 66 66 67 68 69 71 73 74 75 76 78 80 82 84 86 88 90 92 93 95 96 98 99 99 99 99 102 104 105 106 108 109 111 113 114 113 112 111 109 108 108 107 107 107 107 107 107 107 108 108 109 110 111
37 38 39 39 40 42 44 44 46 49 51 53 54 55 56 57 58 59 60 60 62 62 64 65 66 68 69 70 71 72 73 75 77 79 80 82 84 85 87 89 90 91 93 94 94 93 94 97 99 100 102 103 105 106 108 109 109 109 107 106 105 104 104 104 104 104 104 104 104 105 106 106 107 107
35 37 38 37 38 39 40 41 43 45 47 48 49 50 51 53 54 55 55 56 57 58 60 62 63 63 65 66 68 69 70 72 74 74 75 76 78 79 81 83 85 87 89 89 88 88 90 93 95 97 98 99 100 101 102 103 104 104 102 101 101 101 100 100 100 101 101 101 101 101 102 101 101 101
33 35 36 36 36 37 38 38 40 42 43 45 45 46 48 49 50 51 51 52 52 53 54 55 56 57 59 61 63 65 67 69 70 70 70 71 73 74 76 78 80 82 84 84 84 85 89 92 93 94 94 94 95 97 97 98 98 98 97 97 98 98 97 97 97 98 98 97 97 97 97 97 97 96
31 32 33 34 35 35 36 37 38 39 40 41 42 43 44 44 45 46 46 47 47 48 49 50 51 53 55 57 60 62 64 65 65 66 67 68 70 71 72 74 76 78 79 79 80 83 85 88 89 88 88 88 90 91 93 95 95 94 94 95 95 94 94 94 95 95 95 94 93 93 93 93 94 94
28 29 29 30 31 32 33 34 35 36 37 38 38 38 39 40 40 41 42 42 43 43 44 45 47 49 51 53 56 59 61 62 63 64 66 67 67 68 69 71 73 74 74 75 77 78 79 81 81 81 81 82 84 86 89 91 91 90 90 91 91 91 91 92 93 93 92 91 90 90 91 91 92 93
24 25 25 26 28 29 30 30 31 32 33 33 34 35 35 36 37 37 38 39 39 40 41 43 44 46 48 51 54 56 59 61 62 63 64 64 64 64 65 66 68 69 70 71 73 74 75 76 76 77 77 78 80 81 83 85 86 85 85 85 85 86 87 88 89 89 89 88 88 88 88 89 89 89
21 21 22 23 24 25 26 27 27 28 29 29 30 31 31 32 33 34 35 36 37 38 40 41 43 45 47 49 51 54 56 57 59 59 60 60 60 61 61 62 64 66 67 68 70 71 72 72 73 73 74 74 75 76 78 79 81 81 80 79 80 82 84 85 85 86 86 86 85 85 85 84 84 85
18 18 19 20 21 22 23 24 25 25 26 26 27 27 28 29 30 31 32 33 34 36 37 39 41 43 44 46 48 49 51 52 53 54 55 56 57 58 59 60 61 63 64 65 66 67 68 69 69 69 70 70 71 73 74 75 77 77 76 75 76 79 80 81 81 82 82 82 81 81 81 82 83 83
15 15 16 17 18 19 20 21 22 23 23 24 24 24 25 26 27 28 29 30 32 33 35 37 38 40 41 42 44 45 46 47 48 50 51 52 53 54 56 57 58 59 60 61 62 63 64 64 65 66 66 67 69 70 71 73 75 75 74 74 74 76 77 76 76 77 78 78 78 79 80 81 82 82
12 12 13 14 14 16 17 17 18 19 19 20 21 22 22 23 24 26 27 28 30 31 33 34 36 37 38 39 40 41 42 43 45 46 47 48 49 50 51 52 53 54 56 57 58 59 60 61 62 63 64 65 67 68 69 71 72 72 72 72 72 73 74 73 72 73 74 74 75 76 77 79 79 79
9 10 10 10 11 12 13 14 15 15 16 17 18 19 20 21 22 23 25 26 27 29 30 32 33 34 36 37 38 39 40 41 42 43 44 45 46 47 48 49 50 51 53 54 55 56 57 59 60 61 62 63 64 65 66 68 69 69 69 69 69 69 70 70 69 70 70 70 70 71 74 76 76 76
7 8 8 8 9 10 11 12 13 14 14 15 16 17 18 19 20 21 22 23 25 26 27 29 30 32 33 34 36 37 38 39 40 41 42 43 44 46 47 47 48 50 51 52 53 54 55 56 57 58 59 60 61 62 62 64 65 65 65 65 65 66 67 67 66 67 68 68 67 67 70 72 74 75
5 6 7 7 7 8 9 10 11 12 13 13 14 15 15 16 18 19 20 21 22 23 25 26 27 29 30 32 33 34 35 37 38 39 40 41 42 44 45 46 47 48 49 50 51 52 53 54 54 55 56 56 58 58 58 60 62 62 61 62 63 63 64 64 64 64 66 66 65 65 65 67 71 73
5 6 6 7 7 8 8 9 10 11 12 12 13 13 14 15 16 17 18 19 20 21 23 24 25 26 28 29 30 32 33 34 36 37 38 39 40 42 43 44 45 46 46 48 48 49 50 51 52 53 53 54 55 55 55 57 59 59 58 59 60 60 61 62 62 63 63 64 64 63 63 64 68 72
5 6 6 7 7 8 8 9 9 10 10 11 12 12 13 14 15 16 17 18 19 20 21 22 23 24 26 27 28 29 31 32 33 34 36 37 38 40 41 42 43 43 44 45 46 47 48 49 49 50 51 51 52 53 54 55 56 57 56 57 59 59 59 59 62 63 63 63 63 63 63 63 65 68
6 6 6 7 7 7 8 8 8 9 9 10 10 11 12 13 13 14 15 16 17 18 19 20 21 23 24 25 26 27 29 30 31 33 34 35 37 38 39 40 41 42 43 44 45 46 47 48 48 49 50 51 52 53 54 56 57 57 55 56 58 60 59 58 60 62 64 64 63 62 62 62 62 65
5 6 6 6 7 7 7 7 8 8 8 9 10 10 11 12 13 13 14 15 16 17 18 20 21 22 23 24 26 27 28 30 31 32 34 35 36 37 38 40 41 42 43 44 45 46 47 48 49 49 50 51 52 53 54 56 58 57 55 54 55 58 59 59 59 60 62 64 64 63 63 62 62 63
5 5 5 6 6 6 6 7 7 7 8 9 10 10 11 12 13 14 15 16 17 18 19 20 21 23 24 25 26 28 29 30 32 33 34 35 37 38 39 40 41 42 43 44 45 46 47 48 48 49 50 51 52 52 54 55 57 58 57 54 53 54 57 59 60 61 62 64 64 63 62 62 62 63
4 4 4 5 5 5 6 6 7 7 8 9 10 11 12 12 13 14 15 16 18 19 20 21 22 23 24 26 27 28 30 31 32 33 34 36 37 38 38 39 40 41 42 43 43 44 45 46 48 49 50 51 51 52 54 55 56 58 60 58 55 54 55 56 58 60 62 64 64 63 62 62 62 63
4 4 4 5 5 5 6 6 7 8 8 9 10 11 11 12 13 14 15 16 17 18 19 21 22 23 24 25 26 28 29 30 31 32 33 34 35 36 37 38 39 40 41 41 42 43 44 45 47 48 49 50 50 51 53 54 56 58 59 60 59 57 55 54 56 58 61 63 64 64 63 63 63 64
4 4 5 5 6 6 6 7 7 8 9 9 10 11 12 13 13 14 15 16 17 18 19 20 21 22 23 24 25 26 27 28 29 30 31 32 33 34 35 36 37 38 39 40 41 42 43 44 45 47 48 49 49 49 51 53 55 57 58 59 59 58 56 55 55 57 59 62 63 62 62 64 65 65
4 5 6 6 7 7 8 8 9 10 10 11 12 12 13 14 14 15 16 17 18 19 20 21 22 23 23 24 25 26 27 28 29 29 30 31 32 33 34 35 36 37 38 39 41 42 42 42 43 45 46 47 47 48 50 52 55 56 57 57 57 56 56 57 56 55 56 59 59 58 58 61 63 64
Wind_Direction
242 242 244 244 245 245 245 244 244 245 245 245 244 244 244 243 242 242 242 243 244 243 243 244 244 244 244 244 244 244 244 245 245 246 247 247 247 248 248 248 249 249 249 249 250 250 250 250 251 251 251 251 251 252 252 252 252 252 252 252 252 252 252 252 251 251 251 251 251 251 251 251 251 251
241 241 242 243 244 244 245 245 244 244 245 245 245 245 245 244 243 242 242 242 243 243 243 244 244 244 244 244 245 245 244 244 245 245 246 247 247 247 248 248 248 249 249 250 250 250 250 250 250 251 251 251 252 252 252 252 252 252 252 252 252 252 252 252 252 252 252 251 251 251 251 251 251 251
242 242 242 243 243 244 244 245 245 244 244 244 245 246 246 246 245 244 242 241 242 243 243 243 243 244 244 245 245 245 245 245 245 245 245 246 247 247 248 248 248 248 249 249 250 250 250 250 251 251 251 251 252 252 252 252 253 253 253 253 253 253 252 252 252 252 252 252 252 251 251 251 251 251
242 242 242 242 243 243 243 244 245 245 245 245 245 245 246 246 246 246 244 242 241 242 243 243 243 243 244 245 245 245 246 246 245 245 245 246 247 247 248 248 248 248 248 249 249 250 250 251 251 251 251 251 252 252 252 252 253 253 253 253 253 253 253 253 252 252 252 252 252 251 251 251 251 251
242 242 241 241 242 243 243 244 244 245 245 245 245 245 246 247 247 247 246 245 243 242 242 243 243 244 244 244 245 245 246 246 246 246 246 246 246 247 248 248 248 248 248 249 249 249 250 250 251 251 251 251 252 252 252 252 252 253 253 253 253 253 253 253 253 253 252 252 252 252 252 252 252 252
243 242 242 241 241 242 242 243 244 244 245 246 246 246 247 247 247 248 248 247 245 244 243 243 243 244 244 244 245 245 246 246 246 246 246 246 246 247 248 248 249 249 249 249 249 249 250 250 251 251 251 251 251 251 252 252 252 252 253 253 253 253 253 253 253 253 253 252 252 252 252 252 252 252
242 242 242 242 242 242 242 242 243 244 244 245 246 246 247 247 247 248 249 249 248 246 245 244 243 244 244 245 245 245 246 246 247 247 247 247 247 247 248 248 249 249 250 250 250 250 250 250 250 251 251 251 251 251 251 252 252 252 252 252 253 253 253 253 253 253 253 253 253 253 253 252 252 252
241 241 242 242 242 242 242 242 243 243 244 245 245 246 246 247 247 247 248 248 248 248 247 246 245 245 245 245 246 246 246 247 247 247 248 248 248 248 248 248 249 249 250 250 250 250 250 250 250 251 251 251 251 251 251 251 252 252 252 252 252 252 253 253 253 253 253 253 253 253 253 253 253 253
241 241 241 241 242 242 242 242 242 243 244 244 245 245 245 246 246 246 247 247 247 247 247 247 247 246 246 246 246 247 247 247 248 248 248 248 248 248 248 248 249 249 250 250 250 251 251 251 251 251 251 251 251 251 252 252 252 252 252 252 252 252 252 252 252 253 253 253 253 253 253 253 253 253
241 241 241 240 241 241 241 242 242 242 242 243 244 244 244 245 245 245 246 246 246 246 246 246 246 247 247 247 246 247 247 247 248 248 248 248 249 249 249 249 249 249 250 250 250 250 251 251 251 251 251 251 252 252 252 252 252 252 252 252 252 252 252 252 252 252 252 253 253 253 253 253 253 253
242 242 241 241 241 241 241 241 241 241 242 242 242 243 243 243 243 244 244 245 245 244 244 244 245 245 246 247 247 247 247 247 247 248 248 248 249 249 250 250 249 249 249 249 250 250 250 251 251 251 251 251 252 252 252 252 252 252 252 252 252 252 252 252 252 252 252 252 253 253 253 253 253 253
244 244 243 242 242 241 241 241 241 242 242 242 242 242 242 243 243 243 243 243 243 243 243 243 243 243 244 246 247 248 248 248 248 248 248 248 248 248 249 249 249 249 249 249 249 249 250 250 250 251 251 251 251 252 252 252 252 252 252 252 252 252 252 252 252 252 252 252 253 253 253 253 253 253
245 245 245 244 244 243 242 242 242 242 242 242 242 242 242 243 243 243 243 242 242 243 243 243 242 242 243 244 245 246 248 248 248 248 247 247 247 247 248 248 249 249 249 249 249 249 250 250 250 251 251 251 251 251 251 252 252 252 252 253 252 252 252 252 252 252 252 253 253 253 253 253 253 253
246 246 246 246 246 246 245 244 244 243 243 242 243 243 243 243 243 243 243 243 242 242 243 243 242 242 242 242 244 245 246 247 248 248 248 248 247 247 248 248 248 249 249 249 249 249 249 250 250 250 250 251 251 251 251 251 251 252 252 252 253 253 253 253 253 252 252 253 253 253 253 253 253 254
246 246 247 247 247 247 247 246 246 245 244 244 244 244 244 244 243 243 243 243 243 243 243 243 243 242 242 242 243 243 244 246 247 248 248 248 248 247 247 247 247 247 248 248 248 248 249 249 249 250 250 250 251 251 251 251 251 251 252 252 252 253 253 253 253 253 253 253 253 253 253 253 253 254
245 245 245 246 246 246 246 246 246 246 246 245 244 244 244 245 245 245 244 244 244 244 244 244 244 243 243 242 242 243 243 244 245 246 247 247 247 247 247 246 246 246 246 246 246 247 247 248 248 248 249 250 250 251 251 251 251 251 251 252 252 252 253 253 253 253 253 253 253 253 253 253 254 254
245 245 244 244 244 244 245 245 245 245 245 245 245 244 244 244 245 245 245 245 244 244 244 244 244 244 243 242 242 242 243 243 243 244 245 246 247 247 246 245 245 246 246 246 246 246 247 247 248 248 249 249 250 251 251 251 252 251 251 251 252 252 252 252 253 253 253 253 253 253 253 253 253 253
245 244 243 243 244 244 244 244 244 244 244 244 244 245 245 245 244 244 244 244 244 244 244 244 244 244 243 242 242 242 242 243 243 244 244 244 245 246 246 245 245 246 247 247 247 247 247 248 248 248 249 249 250 251 251 252 252 252 252 252 252 252 252 252 252 253 253 253 254 254 254 253 253 253
245 244 244 243 244 244 245 245 245 245 244 244 244 244 244 244 244 244 243 243 242 242 243 243 243 243 242 242 242 242 242 242 243 243 243 243 244 245 245 245 246 246 246 247 248 248 248 248 249 249 250 250 251 251 252 252 252 253 253 253 253 253 252 252 252 252 252 253 254 254 254 254 254 254
247 246 246 245 245 244 245 245 246 246 246 246 245 245 244 244 244 244 244 244 243 242 241 242 243 243 242 242 242 242 241 241 241 241 241 242 242 243 243 244 245 246 246 247 247 248 248 249 249 250 250 251 252 252 252 253 253 253 253 254 254 254 253 253 253 253 253 253 253 253 254 254 254 254
248 247 246 246 246 246 245 245 245 246 246 246 246 245 244 244 244 244 244 244 244 243 242 241 242 243 243 243 242 241 241 240 240 240 240 240 241 241 242 243 244 245 246 247 248 248 248 249 249 249 250 251 252 252 253 253 253 253 253 254 254 254 255 255 254 254 254 254 253 253 253 254 254 254
250 249 247 246 246 246 245 244 244 244 244 244 244 244 244 243 243 243 243 243 244 244 243 242 242 242 243 243 242 241 241 240 240 239 239 240 240 241 242 243 244 245 246 247 248 248 248 248 248 249 249 250 251 252 253 253 254 254 254 254 254 254 255 255 255 255 255 254 254 253 253 253 253 254
251 250 249 247 246 245 245 244 243 242 242 242 243 243 243 243 243 243 244 244 244 244 244 243 242 242 241 241 241 241 241 241 240 240 239 239 240 240 241 242 243 244 245 246 247 247 247 247 248 249 249 249 250 250 251 253 253 254 254 254 254 255 255 255 255 255 255 254 254 253 253 252 252 252
254 253 251 248 246 245 244 243 242 242 242 243 244 244 245 245 245 245 245 245 244 244 243 242 242 241 241 241 241 241 240 240 241 240 240 240 240 240 241 242 242 243 244 245 245 246 246 247 248 248 249 249 250 250 251 252 253 254 255 255 255 255 255 255 255 255 254 254 254 253 252 252 252 252
253 254 254 252 250 248 246 245 244 244 244 244 244 244 244 245 245 245 244 244 243 243 243 242 242 242 242 243 243 243 242 241 241 241 241 241 241 241 241 241 242 242 243 244 244 244 245 246 247 247 248 248 249 250 251 252 253 254 255 256 256 256 256 256 255 255 254 254 254 254 253 253 252 252
253 253 254 254 253 252 250 248 247 246 245 245 244 243 243 243 243 244 243 243 243 242 242 242 241 240 241 241 242 242 242 243 242 242 241 241 241 240 241 241 242 242 243 243 243 243 244 245 246 247 247 248 249 251 252 252 253 254 255 255 255 255 255 255 255 255 255 255 254 254 254 253 253 252
254 253 253 253 253 252 251 250 249 248 247 247 247 246 246 245 245 244 244 243 242 241 241 240 239 237 237 237 237 239 240 241 242 242 241 241 240 240 240 241 241 242 242 242 242 243 244 245 247 247 248 248 249 250 251 252 252 252 253 253 254 254 254 255 255 255 255 255 255 254 254 254 253 252
254 253 252 251 250 250 249 249 249 249 249 248 249 248 248 247 245 244 243 242 241 239 239 238 237 236 235 235 235 236 237 238 239 240 240 240 240 240 240 240 241 242 243 243 243 244 244 246 247 247 247 247 248 249 250 251 251 251 251 252 253 254 254 254 254 255 255 255 254 254 254 253 252 252
255 253 251 249 248 247 247 247 248 249 249 249 249 249 248 247 245 243 242 240 239 237 236 235 235 234 234 233 233 234 235 236 237 238 239 240 240 240 240 241 241 242 243 243 244 244 245 245 246 246 246 246 247 248 249 251 252 252 251 251 252 252 253 253 253 254 254 254 253 253 253 253 253 253
253 252 251 249 247 246 245 245 245 246 247 247 248 248 247 246 244 243 241 240 238 236 235 234 234 233 233 233 233 234 235 236 238 239 240 241 241 242 242 241 241 241 241 242 243 244 244 245 246 246 247 247 248 249 250 251 252 252 251 251 250 250 250 251 251 252 252 253 253 253 253 253 253 253
249 248 247 246 245 244 244 243 243 243 243 243 243 244 244 243 242 241 240 239 237 236 235 235 234 234 234 234 235 235 236 237 238 239 240 240 241 241 242 242 242 242 242 243 243 244 244 245 246 247 248 248 248 249 250 251 252 252 252 251 250 250 249 249 250 251 252 252 253 253 253 252 252 251
241 240 240 240 239 239 239 239 239 239 239 239 238 238 239 239 239 238 237 236 236 235 235 235 235 235 235 236 236 236 237 237 238 238 239 239 240 241 241 242 243 243 244 244 244 245 246 246 246 247 248 248 248 249 249 250 251 251 251 251 251 251 250 250 249 250 251 251 252 252 252 252 252 251
230 229 230 231 232 232 232 233 234 234 235 236 236 236 236 236 236 236 235 235 234 234 234 234 234 235 236 236 237 237 237 237 238 238 239 239 240 241 241 242 242 243 244 244 245 245 246 246 246 247 247 247 248 248 249 249 250 250 251 251 250 251 252 251 250 250 250 250 251 252 252 252 252 252
218 217 218 220 222 225 226 227 228 229 231 233 234 234 234 234 234 234 234 234 234 234 234 234 235 235 236 236 237 238 238 238 238 239 240 240 241 241 242 242 243 243 244 244 245 246 246 247 247 247 247 248 248 249 249 250 251 251 251 251 251 252 252 252 252 252 251 250 250 251 252 253 253 252
203 202 203 205 211 216 218 220 222 223 224 226 227 228 229 230 231 231 232 232 232 233 234 235 235 236 236 237 237 238 238 239 239 240 241 242 242 243 243 244 244 245 245 246 246 247 247 248 248 248 248 249 249 249 250 251 251 251 252 252 253 252 253 253 253 253 253 252 251 250 251 253 253 253
185 186 187 189 194 202 208 212 214 215 216 218 220 222 224 226 228 229 229 231 232 232 233 234 235 236 237 237 238 238 239 240 240 241 242 242 243 244 244 245 245 246 246 246 247 247 248 248 249 249 249 249 250 250 250 251 252 252 252 252 253 253 253 253 253 253 253 253 252 251 251 252 254 254
168 172 175 179 184 189 195 201 204 206 208 211 213 216 219 221 223 225 226 228 230 231 232 233 234 236 236 237 238 239 239 240 241 241 242 243 244 245 245 246 246 247 247 248 248 248 249 250 250 250 250 250 251 251 250 251 252 253 252 252 252 253 254 255 254 253 252 252 252 252 251 251 253 255
168 171 173 178 183 186 189 193 197 200 203 206 209 212 215 218 220 222 224 226 227 229 231 232 234 235 236 237 238 239 240 241 241 242 243 244 244 245 246 246 247 248 248 249 249 250 250 251 251 251 252 252 252 252 252 251 251 251 252 252 252 251 251 252 255 255 255 253 252 251 250 249 251 254
173 176 179 181 185 189 191 193 197 199 203 207 210 214 217 220 222 223 225 227 228 230 232 234 235 236 237 238 239 240 241 242 242 243 244 244 245 245 246 246 247 247 248 249 249 250 250 250 251 251 251 251 251 252 252 252 251 250 249 250 253 254 252 251 251 254 256 256 255 254 253 252 252 253
186 189 192 193 195 199 202 204 206 208 212 215 218 221 223 226 227 229 230 231 232 233 234 236 237 237 239 239 240 241 241 242 243 243 244 244 244 245 245 246 246 247 247 248 249 250 251 251 252 252 253 253 253 254 254 255 255 254 251 248 250 254 257 256 254 253 254 256 256 256 256 255 254 255
207 209 210 211 213 214 217 220 223 225 228 230 232 233 234 234 235 236 237 238 239 239 239 240 240 241 242 242 243 244 245 245 245 246 246 246 247 247 247 248 248 248 249 249 250 251 252 253 254 255 255 256 257 257 258 259 260 260 258 253 249 250 253 256 258 257 257 257 256 255 255 256 256 256
227 228 229 231 233 234 235 237 240 242 244 245 245 246 245 244 245 245 245 245 245 246 246 247 247 247 248 248 248 249 249 250 250 251 251 251 251 251 252 252 252 253 253 253 253 254 255 257 257 258 258 258 258 259 260 261 261 262 263 261 257 252 250 251 253 256 258 259 260 259 258 258 257 257
240 245 246 248 249 251 251 251 252 254 254 255 256 256 257 256 255 255 255 255 254 254 255 255 255 255 255 255 255 255 255 256 256 256 257 257 257 258 258 258 258 258 258 258 257 257 257 258 258 259 259 259 259 259 260 260 260 260 261 262 261 258 254 250 249 249 251 253 256 258 259 260 260 259
255 260 264 267 268 270 271 270 270 270 269 269 269 268 267 267 267 266 266 265 265 265 265 264 264 264 264 264 264 264 264 265 265 265 265 265 265 265 264 264 264 263 262 262 261 259 257 257 257 258 258 258 258 259 259 260 259 259 259 260 260 260 258 255 250 247 246 246 248 250 253 255 257 258
273 278 283 285 287 288 287 286 286 285 284 283 282 281 280 280 279 278 278 278 278 277 277 276 276 276 276 276 276 276 276 276 275 275 274 273 272 272 271 270 269 268 267 266 265 263 260 259 257 257 257 257 257 257 258 259 259 260 260 260 260 261 260 259 256 252 249 247 245 244 245 248 252 254